Location: Izdebno
(52.6670°N, 16.2170°E)
Time: 07:20:21
(UTC+02:00)

Vanguard 1 - Pass Details

Date: 26 February 2024
Orbit: 653 x 3825 km, 34.2° (Epoch: 22 April)

Event Time Altitude Azimuth Distance (km) Brightness Sun altitude
Rises 20:44:31 0° 241° (WSW) 5,695 14.4 -29.9°
Reaches altitude 10° 20:47:58 10° 234° (SW) 5,062 13.9 -30.3°
Maximum altitude 21:02:31 43° 170° (S) 4,188 12.8 -32.2°
Enters shadow 21:05:59 40° 151° (SSE) 4,457 12.8 -32.7°
